Tracking 29489 objects as of 9-Sep-2024
HD Live streaming from Space Station
objects crossing your sky now

FENGYUN 1C DEB

Track FENGYUN 1C DEB now!
10-day predictions


NORAD ID: 33668
Int'l Code: 1999-025DFD
Perigee: 470.1 km
Apogee: 602.1 km
Inclination: 99.0 °
Period: 95.2 minutes
Semi major axis: 6907 km
RCS: 0.0083 m2 (small)
Launch date: May 10, 1999
Source: People's Republic of China (PRC)
Launch site: Taiyaun Space Center, China (TSC)

Note: This is SATELLITE DEBRIS
Your satellite tracking list
Your tracking list is empty




NASA's NSSDC Master Catalog

Two Line Element Set (TLE):
1 33668U 99025DFD 24252.95937772  .00074131  00000-0  37928-2 0  9992
2 33668  99.0225 258.6326 0095605 228.5036 130.7956 15.12375196892165
Source of the keplerian elements: AFSPC